Regional Weather Roundup
Issued by NWS Raleigh/Durham, NC

Home | Current Version | Previous Version | Text Only | Print | Product List | Glossary On
Versions: 1 2 3 4 5 6 7 8 9 10 11 12 13 14 15 16 17 18 19 20 21 22 23 24 25 26 27 28 29 30 31 32 33 34 35 36 37 38 39 40 41 42 43 44 45 46 47 48 49 50
000
ASUS42 KRAH 270010
RWRRAH
NORTH CAROLINA WEATHER ROUNDUP
NATIONAL WEATHER SERVICE RALEIGH NC
800 PM EDT THU MAR 26 2015

NOTE: "FAIR" INDICATES FEW OR NO CLOUDS BELOW 12,000 FEET WITH NO
SIGNIFICANT WEATHER AND/OR OBSTRUCTIONS TO VISIBILITY.

NCZ001-053-055-056-065-067-270100-
WESTERN NORTH CAROLINA

CITY           SKY/WX    TMP DP  RH WIND       PRES   REMARKS
ASHEVILLE      CLOUDY    63  51  65 S10       29.77S
JEFFERSON      CLOUDY    60  50  69 S6        29.74F
MORGANTON      CLOUDY    68  52  56 S6G22     29.77R
HICKORY        CLOUDY    68  52  56 S14G23    29.72R
RUTHERFORDTON  CLOUDY    67  51  56 SW8       29.75R
MOUNT AIRY     CLOUDY    69  55  62 S3        29.73R
BOONE          CLOUDY    60  51  73 S13G18    29.76F
$$

NCZ021-022-025-041-071-084-088-270100-
CENTRAL NORTH CAROLINA

CITY           SKY/WX    TMP DP  RH WIND       PRES   REMARKS
CHARLOTTE      CLOUDY    70  52  52 S13       29.75S
GREENSBORO     CLOUDY    68  52  56 SW9       29.71F
WINSTON-SALEM  CLOUDY    69  50  50 SW9G20    29.72R
RALEIGH-DURHAM CLOUDY    69  54  58 S7        29.73F
FORT BRAGG     CLOUDY    71  56  58 S6        29.74F
FAYETTEVILLE   CLOUDY    70  57  63 S8        29.76S
BURLINGTON     CLOUDY    69  54  58 S7        29.71F
LAURINBURG     CLOUDY    69  57  65 S7        29.77F
$$

NCZ011-015-027-028-043-044-047-080-103-270100-
NORTHEASTERN NORTH CAROLINA

CITY           SKY/WX    TMP DP  RH WIND       PRES   REMARKS
ROCKY MT-WILSO CLOUDY    69  58  67 S7        29.74F
GREENVILLE     CLOUDY    70  57  64 S8        29.78F
WASHINGTON     CLOUDY    69  55  61 SW7       29.77S
ELIZABETH CITY CLOUDY    66  58  75 S9        29.74S
MANTEO         CLOUDY    62  56  82 SW21      29.78R
CAPE HATTERAS  CLOUDY    66  59  78 SW16G26   29.84R
$$

NCZ078-087-090-091-093-098-101-270100-
SOUTHEASTERN NORTH CAROLINA

CITY           SKY/WX    TMP DP  RH WIND       PRES   REMARKS
LUMBERTON      CLOUDY    69  57  65 S6        29.77S
GOLDSBORO      CLOUDY    70  69  97 CALM      29.74F
KINSTON        CLOUDY    68  57  68 S8        29.77F
KENANSVILLE    CLOUDY    69  58  69 S5        29.78F
NEW BERN       CLOUDY    67  58  72 S9        29.80F
CHERRY POINT   CLOUDY    65  59  81 S9        29.82F
BEAUFORT       CLOUDY    62  60  93 S12       29.82F
JACKSONVILLE   CLOUDY    66  59  78 S7        29.79F
WILMINGTON     CLOUDY    67  57  70 S12       29.82R
$$



USA.gov is the U.S. government's official web portal to all federal, state and local government web resources and services.